N4DWK Weather Reports


time (UTC)temp
C
wind
direction
speed
KPH
gust
KPH
rain 1hr
cm
rain 24hr
cm
rain mn
cm
humidity
%
barometer
mb
20260510190506 30 296 1.6 11.3 0.00 0.00 0.00 38 1012.9
20260510190005 29 222 6.4 16.1 0.00 0.00 0.00 36 1013.1
20260510185505 29 223 9.7 16.1 0.00 0.00 0.00 36 1013.2
20260510185007 30 223 3.2 12.9 0.00 0.00 0.00 38 1013.1
20260510184505 30 259 0.0 11.3 0.00 0.00 0.00 38 1013.1
20260510184005 30 202 0.0 9.7 0.00 0.00 0.00 37 1013.1
20260510183505 29 221 3.2 9.7 0.00 0.00 0.00 38 1013.2
20260510183006 29 208 4.8 9.7 0.00 0.00 0.00 37 1013.2
20260510182505 29 293 3.2 19.3 0.00 0.00 0.00 39 1013.2
20260510182005 28 226 4.8 19.3 0.00 0.00 0.00 39 1013.2
20260510181505 29 232 3.2 19.3 0.00 0.00 0.00 40 1013.2
20260510181005 29 221 3.2 9.7 0.00 0.00 0.00 39 1013.2
20260510180505 28 358 3.2 9.7 0.00 0.00 0.00 41 1013.2
20260510180007 28 209 1.6 11.3 0.00 0.00 0.00 38 1013.3
20260510175505 28 218 6.4 11.3 0.00 0.00 0.00 39 1013.4
20260510175005 28 225 3.2 9.7 0.00 0.00 0.00 41 1013.5
20260510174505 28 11 1.6 12.9 0.00 0.00 0.00 41 1013.4
20260510174006 28 229 3.2 12.9 0.00 0.00 0.00 40 1013.5
20260510173505 28 240 3.2 9.7 0.00 0.00 0.00 40 1013.5
20260510173005 28 241 1.6 14.5 0.00 0.00 0.00 39 1013.5
20260510172505 28 222 3.2 14.5 0.00 0.00 0.00 40 1013.6
20260510172005 28 228 3.2 9.7 0.00 0.00 0.00 39 1013.5
20260510171505 28 232 4.8 11.3 0.00 0.00 0.00 41 1013.6
20260510171005 28 213 1.6 12.9 0.00 0.00 0.00 42 1013.6
20260510170505 28 161 6.4 12.9 0.00 0.00 0.00 43 1013.7
20260510170005 28 160 4.8 11.3 0.00 0.00 0.00 43 1013.8
20260510165505 28 5 3.2 14.5 0.00 0.00 0.00 43 1013.9
20260510165005 27 15 3.2 14.5 0.00 0.00 0.00 44 1013.9
20260510164504 27 294 1.6 8.0 0.00 0.00 0.00 43 1014.0
20260510164006 27 355 1.6 9.7 0.00 0.00 0.00 44 1014.0
20260510163505 27 221 3.2 9.7 0.00 0.00 0.00 43 1014.0
20260510163005 27 132 3.2 8.0 0.00 0.00 0.00 43 1014.0
20260510162505 26 226 1.6 8.0 0.00 0.00 0.00 46 1013.9
20260510162005 26 41 3.2 4.8 0.00 0.00 0.00 47 1014.0
20260510161505 26 114 1.6 11.3 0.00 0.00 0.00 48 1014.0
20260510161004 26 139 3.2 11.3 0.00 0.00 0.00 47 1014.1
20260510160504 26 323 0.0 9.7 0.00 0.00 0.00 49 1014.1
20260510160005 26 244 0.0 9.7 0.00 0.00 0.00 50 1014.2
20260510155505 25 218 1.6 9.7 0.00 0.00 0.00 49 1014.2
20260510155004 25 211 3.2 9.7 0.00 0.00 0.00 49 1014.3
20260510154505 25 239 1.6 8.0 0.00 0.00 0.00 51 1014.3
20260510154005 25 37 0.0 4.8 0.00 0.00 0.00 51 1014.3
20260510153506 25 41 1.6 4.8 0.00 0.00 0.00 52 1014.4
20260510153006 24 134 4.8 8.0 0.00 0.00 0.00 53 1014.4
20260510152505 24 240 0.0 9.7 0.00 0.00 0.00 54 1014.4
20260510152005 24 226 6.4 9.7 0.00 0.00 0.00 53 1014.4
20260510151505 24 233 4.8 4.8 0.00 0.00 0.00 53 1014.5
20260510151005 24 227 1.6 4.8 0.00 0.00 0.00 55 1014.6
20260510150505 23 0 1.6 8.0 0.00 0.00 0.00 55 1014.5
20260510150005 23 232 1.6 8.0 0.00 0.00 0.00 55 1014.5
20260510145504 23 227 4.8 8.0 0.00 0.00 0.00 56 1014.6
20260510145005 23 152 1.6 8.0 0.00 0.00 0.00 58 1014.6
20260510144504 23 224 4.8 11.3 0.00 0.00 0.00 57 1014.5
20260510144004 23 205 3.2 11.3 0.00 0.00 0.00 57 1014.6
20260510143505 23 15 4.8 9.7 0.00 0.00 0.00 59 1014.5
20260510143005 22 12 1.6 8.0 0.00 0.00 0.00 59 1014.5
20260510142505 22 225 1.6 8.0 0.00 0.00 0.00 59 1014.4
20260510142005 22 224 3.2 8.0 0.00 0.00 0.00 59 1014.4
20260510141505 22 228 0.0 4.8 0.00 0.00 0.00 60 1014.4
20260510141005 22 227 1.6 4.8 0.00 0.00 0.00 61 1014.4
20260510140505 22 229 1.6 8.0 0.00 0.00 0.00 61 1014.4
20260510140004 22 22 3.2 8.0 0.00 0.00 0.00 62 1014.4
20260510135504 21 355 1.6 4.8 0.00 0.00 0.00 63 1014.4
20260510135005 21 355 1.6 4.8 0.00 0.00 0.00 63 1014.3
20260510134505 21 14 3.2 4.8 0.00 0.00 0.00 68 1014.3
20260510134006 20 355 1.6 4.8 0.00 0.00 0.00 69 1014.3
20260510133505 20 343 3.2 4.8 0.00 0.00 0.00 72 1014.3
20260510133004 20 204 3.2 4.8 0.00 0.00 0.00 72 1014.3
20260510132504 20 204 1.6 4.8 0.00 0.00 0.00 75 1014.3
20260510132005 19 355 1.6 4.8 0.00 0.00 0.00 76 1014.4
20260510131504 19 355 0.0 4.8 0.00 0.00 0.00 78 1014.4
20260510131005 18 355 1.6 4.8 0.00 0.00 0.00 79 1014.5
20260510130505 18 5 0.0 4.8 0.00 0.00 0.00 81 1014.4
20260510130004 18 5 1.6 4.8 0.00 0.00 0.00 82 1014.3
20260510125504 17 225 3.2 8.0 0.00 0.00 0.00 83 1014.2
20260510124505 17 194 0.0 0.0 0.00 0.00 0.00 86 1014.1
20260510124005 16 194 0.0 0.0 0.00 0.00 0.00 88 1014.1
20260510123505 16 279 0.0 3.2 0.00 0.00 0.00 89 1014.1
20260510123005 16 279 1.6 4.8 0.00 0.00 0.00 90 1014.1
20260510122005 15 255 1.6 4.8 0.00 0.00 0.00 92 1014.1
20260510121504 15 248 1.6 4.8 0.00 0.00 0.00 93 1013.9
20260510121005 15 248 3.2 4.8 0.00 0.00 0.00 93 1013.8
20260510120505 15 255 0.0 0.0 0.00 0.00 0.00 93 1013.7
20260510120005 15 255 0.0 0.0 0.00 0.00 0.00 93 1013.6
20260510115505 15 255 0.0 0.0 0.00 0.00 0.00 94 1013.5
20260510115005 14 255 0.0 0.0 0.00 0.00 0.00 93 1013.5
20260510114505 14 217 0.0 0.0 0.00 0.00 0.00 93 1013.5
20260510114005 13 217 0.0 0.0 0.00 0.00 0.00 93 1013.4
20260510113004 13 217 0.0 0.0 0.00 0.00 0.00 93 1013.2
20260510112504 13 217 0.0 0.0 0.00 0.00 0.00 93 1013.2
20260510111505 12 217 0.0 0.0 0.00 0.00 0.00 93 1013.2
20260510111005 12 217 0.0 0.0 0.00 0.00 0.00 93 1013.0
20260510110505 12 217 0.0 0.0 0.00 0.00 0.00 93 1013.0
20260510110005 12 217 0.0 0.0 0.00 0.00 0.00 93 1013.0
20260510105504 12 217 0.0 0.0 0.00 0.00 0.00 93 1013.0
20260510105005 12 217 0.0 0.0 0.00 0.00 0.00 92 1012.9
20260510104504 12 217 0.0 0.0 0.00 0.00 0.00 92 1012.8
20260510104005 12 217 0.0 0.0 0.00 0.00 0.00 92 1012.7
20260510103505 12 217 0.0 0.0 0.00 0.00 0.00 92 1012.7
20260510103004 12 217 0.0 0.0 0.00 0.00 0.00 92 1012.6
20260510102504 12 217 0.0 0.0 0.00 0.00 0.00 92 1012.5
20260510101505 12 217 0.0 0.0 0.00 0.00 0.00 92 1012.4
20260510101005 12 217 0.0 0.0 0.00 0.00 0.00 92 1012.3
20260510100505 12 217 0.0 0.0 0.00 0.00 0.00 92 1012.2
20260510100004 13 217 0.0 0.0 0.00 0.00 0.00 92 1012.1
20260510095005 13 217 0.0 0.0 0.00 0.00 0.00 92 1012.1
20260510094505 13 217 0.0 0.0 0.00 0.00 0.00 92 1012.1
20260510094005 13 217 0.0 0.0 0.00 0.00 0.00 92 1012.1
20260510093505 13 217 0.0 0.0 0.00 0.00 0.00 92 1012.0
20260510093005 13 217 0.0 0.0 0.00 0.00 0.00 91 1012.0
20260510092004 13 217 0.0 0.0 0.00 0.00 0.00 91 1011.9
20260510091504 13 217 0.0 0.0 0.00 0.00 0.00 91 1011.9
20260510091005 13 217 0.0 0.0 0.00 0.00 0.00 91 1011.9
20260510090504 13 217 0.0 0.0 0.00 0.00 0.00 91 1011.8
20260510085504 13 217 0.0 0.0 0.00 0.00 0.00 91 1011.6
20260510085005 13 217 0.0 0.0 0.00 0.00 0.00 91 1011.5
20260510084005 14 217 0.0 0.0 0.00 0.00 0.00 90 1011.4
20260510083504 14 217 0.0 0.0 0.00 0.00 0.00 90 1011.4
20260510083004 14 217 0.0 0.0 0.00 0.00 0.00 90 1011.5
20260510082504 14 217 0.0 0.0 0.00 0.00 0.00 90 1011.5
20260510082006 14 217 0.0 0.0 0.00 0.00 0.00 90 1011.4
20260510081005 15 217 0.0 0.0 0.00 0.00 0.00 89 1011.3
20260510080504 15 217 0.0 0.0 0.00 0.00 0.00 89 1011.3
20260510080004 15 217 0.0 0.0 0.00 0.00 0.00 89 1011.3
20260510075504 15 217 0.0 0.0 0.00 0.00 0.00 89 1011.3
20260510075005 15 217 0.0 0.0 0.00 0.00 0.00 89 1011.2
20260510074504 15 217 0.0 0.0 0.00 0.00 0.00 88 1011.2
20260510073504 16 217 0.0 0.0 0.00 0.00 0.00 88 1011.2
20260510073004 16 217 0.0 0.0 0.00 0.00 0.00 88 1011.2
20260510072504 16 217 0.0 0.0 0.00 0.00 0.00 88 1011.2
20260510072004 16 217 0.0 0.0 0.00 0.00 0.00 88 1011.1
20260510071505 16 217 0.0 0.0 0.00 0.00 0.00 87 1011.2
20260510071004 16 217 0.0 0.0 0.00 0.00 0.00 87 1011.1
20260510070504 16 217 0.0 0.0 0.00 0.00 0.00 87 1011.0
20260510070004 16 217 0.0 0.0 0.00 0.00 0.00 86 1011.0
20260510065504 17 217 0.0 0.0 0.00 0.00 0.00 86 1011.1
20260510065004 17 217 0.0 0.0 0.00 0.00 0.00 86 1011.1
20260510064005 17 217 0.0 0.0 0.00 0.00 0.00 85 1011.3
20260510063504 17 217 0.0 0.0 0.00 0.00 0.00 85 1011.3
20260510063004 17 217 0.0 1.6 0.00 0.00 0.00 85 1011.3
20260510062504 17 217 0.0 3.2 0.00 0.00 0.00 85 1011.2
20260510062004 17 217 0.0 4.8 0.00 0.00 0.00 85 1011.2
20260510061504 18 217 3.2 4.8 0.00 0.00 0.00 84 1011.1
20260510061004 18 216 1.6 4.8 0.00 0.00 0.00 84 1011.2
20260510060004 18 220 1.6 9.7 0.00 0.00 0.00 83 1011.1
20260510055505 18 221 3.2 9.7 0.00 0.00 0.00 83 1011.1
20260510055004 18 228 1.6 8.0 0.00 0.00 0.00 83 1011.1
20260510054504 18 215 1.6 4.8 0.00 0.00 0.00 83 1011.2
20260510054004 18 217 3.2 4.8 0.00 0.00 0.00 82 1011.2
20260510052505 18 230 3.2 11.3 0.00 0.00 0.00 81 1011.2
20260510051504 19 226 3.2 8.0 0.00 0.00 0.00 81 1011.2
20260510051005 19 218 3.2 8.0 0.00 0.00 0.00 81 1011.2
20260510050503 19 213 3.2 11.3 0.00 0.00 0.00 81 1011.2
20260510050004 19 228 4.8 11.3 0.00 0.00 0.00 81 1011.1
20260510045504 19 218 3.2 11.3 0.00 0.00 0.00 80 1011.1
20260510045004 19 217 3.2 11.3 0.00 0.00 0.00 80 1011.1
20260510044504 19 233 3.2 9.7 0.00 0.00 0.00 80 1011.2
20260510044004 19 217 3.2 9.7 0.00 0.00 0.00 80 1011.3
20260510043505 19 212 4.8 11.3 0.00 0.00 0.00 80 1011.1
20260510043004 19 211 3.2 11.3 0.00 0.00 0.00 79 1011.1
20260510042004 19 215 3.2 12.9 0.00 0.00 0.00 79 1011.1
20260510041504 19 212 4.8 12.9 0.00 0.00 0.00 79 1011.1
20260510041005 19 231 6.4 12.9 0.00 0.00 0.00 79 1011.1
20260510040005 19 223 4.8 8.0 0.00 0.00 0.00 78 1011.0
20260510035504 19 222 4.8 8.0 0.00 0.00 0.00 77 1011.0
20260510035004 19 224 4.8 4.8 0.00 0.00 0.00 77 1010.9
20260510034503 19 191 3.2 4.8 0.00 0.00 0.00 77 1011.0
20260510034004 19 229 3.2 8.0 0.00 0.00 0.00 76 1010.9
20260510033504 19 217 3.2 8.0 0.00 0.00 0.00 76 1010.9
20260510033004 19 210 3.2 4.8 0.00 0.00 0.00 76 1010.9
20260510032504 19 217 3.2 4.8 0.00 0.00 0.00 76 1010.9
20260510031504 19 225 4.8 8.0 0.00 0.00 0.00 75 1010.8
20260510031004 20 222 1.6 4.8 0.00 0.00 0.00 75 1010.8
20260510030004 20 223 3.2 4.8 0.00 0.00 0.00 74 1010.7
20260510025504 20 224 3.2 4.8 0.00 0.00 0.00 74 1010.7
20260510025005 20 216 3.2 8.0 0.00 0.00 0.00 74 1010.6
20260510024504 20 215 3.2 8.0 0.00 0.00 0.00 74 1010.6
20260510024005 20 211 3.2 4.8 0.00 0.00 0.00 74 1010.6
20260510023503 19 221 3.2 4.8 0.00 0.00 0.00 74 1010.5
20260510023003 19 215 3.2 4.8 0.00 0.00 0.00 74 1010.5
20260510022504 19 216 3.2 4.8 0.00 0.00 0.00 75 1010.5
20260510022004 19 211 1.6 4.8 0.00 0.00 0.00 75 1010.4
20260510021503 19 209 1.6 4.8 0.00 0.00 0.00 75 1010.3
20260510021006 19 209 3.2 4.8 0.00 0.00 0.00 75 1010.2
20260510020505 18 211 0.0 0.0 0.00 0.00 0.00 75 1010.3
20260510020006 18 211 0.0 0.0 0.00 0.00 0.00 75 1010.2
20260510015505 18 211 0.0 0.0 0.00 0.00 0.00 74 1010.0
20260510015006 19 211 0.0 0.0 0.00 0.00 0.00 74 1010.0
20260510014505 19 211 0.0 0.0 0.00 0.00 0.00 73 1009.9
20260510014005 19 211 0.0 0.0 0.00 0.00 0.00 73 1009.8
20260510013505 19 211 0.0 0.0 0.00 0.00 0.00 73 1009.8
20260510013005 19 211 0.0 0.0 0.00 0.00 0.00 73 1009.9
20260510012505 19 211 0.0 0.0 0.00 0.00 0.00 72 1009.8
20260510012005 19 211 0.0 0.0 0.00 0.00 0.00 72 1009.6
20260510011505 19 211 0.0 0.0 0.00 0.00 0.00 71 1009.6
20260510011006 20 211 0.0 0.0 0.00 0.00 0.00 71 1009.5
20260510010505 20 211 0.0 0.0 0.00 0.00 0.00 71 1009.5
20260510010006 20 211 0.0 0.0 0.00 0.00 0.00 70 1009.6
20260510005505 20 211 0.0 0.0 0.00 0.00 0.00 69 1009.5
20260510005005 20 211 0.0 0.0 0.00 0.00 0.00 69 1009.4
20260510004505 20 211 0.0 0.0 0.00 0.00 0.00 68 1009.3
20260510004006 21 211 0.0 0.0 0.00 0.00 0.00 67 1009.2
20260510003506 21 211 0.0 0.0 0.00 0.00 0.00 67 1009.2
20260510003006 21 211 0.0 0.0 0.00 0.00 0.00 66 1009.2
20260510002506 21 211 0.0 0.0 0.00 0.00 0.00 65 1009.1
20260510002006 21 211 0.0 0.0 0.00 0.00 0.00 64 1009.0
20260510001505 22 211 0.0 0.0 0.00 0.00 0.00 64 1009.1
20260510001006 22 211 0.0 0.0 0.00 0.00 0.00 63 1009.0
20260510000506 22 211 0.0 0.0 0.00 0.00 0.00 62 1008.9
20260510000006 22 211 0.0 0.0 0.00 0.00 0.00 61 1008.8
20260509235506 22 211 0.0 0.0 0.00 0.00 0.00 61 1008.8
20260509234506 23 211 0.0 3.2 0.00 0.00 0.00 59 1008.7
20260509234006 23 211 0.0 4.8 0.00 0.00 0.00 58 1008.6
20260509233505 23 211 1.6 4.8 0.00 0.00 0.00 58 1008.7
20260509232505 23 213 0.0 4.8 0.00 0.00 0.00 57 1008.8
20260509232005 23 213 0.0 4.8 0.00 0.00 0.00 57 1008.7
20260509231505 23 213 1.6 4.8 0.00 0.00 0.00 57 1008.7
20260509231005 23 213 0.0 4.8 0.00 0.00 0.00 56 1008.8
20260509230005 23 215 1.6 4.8 0.00 0.00 0.00 56 1008.7
20260509225506 23 215 0.0 4.8 0.00 0.00 0.00 56 1008.7
20260509225005 24 217 3.2 4.8 0.00 0.00 0.00 55 1008.6
20260509224505 24 217 3.2 8.0 0.00 0.00 0.00 55 1008.6
20260509223505 24 225 4.8 12.9 0.00 0.00 0.00 54 1008.6
20260509223005 24 235 6.4 12.9 0.00 0.00 0.00 53 1008.6
20260509222505 25 220 4.8 12.9 0.00 0.00 0.00 54 1008.6
20260509222006 25 220 3.2 8.0 0.00 0.00 0.00 54 1008.7
20260509221505 25 199 1.6 4.8 0.00 0.00 0.00 55 1008.7
20260509221005 25 232 3.2 4.8 0.00 0.00 0.00 55 1008.6
20260509220505 25 242 1.6 8.0 0.00 0.00 0.00 56 1008.6
20260509220005 25 222 4.8 8.0 0.00 0.00 0.00 54 1008.6
20260509215505 25 234 3.2 8.0 0.00 0.00 0.00 55 1008.6
20260509215007 25 224 4.8 11.3 0.00 0.00 0.00 54 1008.5
20260509214505 24 216 1.6 11.3 0.00 0.00 0.00 56 1008.4
20260509214005 24 233 4.8 9.7 0.00 0.00 0.00 57 1008.5
20260509213505 24 237 4.8 12.9 0.00 0.00 0.00 56 1008.5
20260509213005 24 221 3.2 14.5 0.00 0.00 0.00 55 1008.5
20260509212505 25 224 8.0 14.5 0.00 0.00 0.00 54 1008.5
20260509212006 25 226 4.8 11.3 0.00 0.00 0.00 55 1008.4
20260509211506 25 227 8.0 11.3 0.00 0.00 0.00 54 1008.4
20260509211005 25 218 4.8 14.5 0.00 0.00 0.00 54 1008.4
20260509210505 25 233 3.2 14.5 0.00 0.00 0.00 53 1008.5
20260509210005 25 212 4.8 14.5 0.00 0.00 0.00 53 1008.4
20260509205505 25 216 4.8 14.5 0.00 0.00 0.00 51 1008.5
20260509205005 25 225 8.0 14.5 0.00 0.00 0.00 53 1008.4
20260509204505 25 235 8.0 16.1 0.00 0.00 0.00 54 1008.3
20260509204005 25 225 8.0 16.1 0.00 0.00 0.00 53 1008.3
20260509203505 25 213 8.0 12.9 0.00 0.00 0.00 53 1008.3
20260509203005 25 233 4.8 12.9 0.00 0.00 0.00 54 1008.2
20260509202505 25 226 9.7 12.9 0.00 0.00 0.00 54 1008.2
20260509202005 25 223 6.4 14.5 0.00 0.00 0.00 53 1008.2
20260509201505 25 234 8.0 14.5 0.00 0.00 0.00 53 1008.3
20260509201005 25 224 8.0 14.5 0.00 0.00 0.00 53 1008.4
20260509200005 25 229 8.0 14.5 0.00 0.00 0.00 53 1008.5
20260509195505 25 228 8.0 16.1 0.00 0.00 0.00 53 1008.6
20260509195005 25 230 8.0 16.1 0.00 0.00 0.00 52 1008.6
20260509194505 25 222 8.0 14.5 0.00 0.00 0.00 52 1008.6
20260509194005 25 212 3.2 9.7 0.00 0.00 0.00 55 1008.8
20260509193505 23 229 3.2 12.9 0.00 0.00 0.00 57 1008.9
20260509193005 23 232 4.8 12.9 0.00 0.00 0.00 56 1009.0
20260509192505 23 222 4.8 11.3 0.00 0.00 0.00 55 1009.1
20260509192005 24 221 4.8 11.3 0.00 0.00 0.00 54 1009.0
20260509191505 25 193 4.8 8.0 0.00 0.00 0.00 53 1009.1